User: anonymous   Login
Location: Unspecified
(0.0000°N, 0.0000°E)
Time: 15:16:36
(UTC+00:00)
Language:

Vela 1A - Orbit

View from above orbital plane
View from above orbital plane
View from above satellite
View from above satellite

Ground track
Ground track

The orbit data is extracted from the following two-line orbital elements,

1   692U 63039C   18236.14976426 -.00001479 +00000-0 +00000-0 0  9999
2   692 027.2026 342.0351 6396976 210.0920 087.3147 00.22178276044278
Epoch (UTC): 24 August 2018 03:35:39
Eccentricity: 0.6396976
inclination: 27.2026°
perigee height: 35160 km
apogee height: 182657 km
right ascension of ascending node: 342.0351°
argument of perigee: 210.0920°
revolutions per day: 0.22178276
mean anomaly at epoch: 87.3147°
orbit number at epoch: 4427

The dashed part of the orbit path shows where the satellite is in the earth's shadow,  

DLR